Regional Weather Roundup
Issued by NWS

Home | Current Version | Previous Version | Text Only | Print | Product List | Glossary Off
Versions: 1 2 3 4 5 6 7 8 9 10 11 12 13 14 15 16 17 18 19 20 21 22 23 24 25 26 27 28 29 30 31 32 33 34 35 36 37 38 39 40 41 42 43 44 45 46 47 48 49 50

000
ASUS43 KOAX 041710
RWRNE

WEATHER ROUNDUP FOR NEBRASKA
NATIONAL WEATHER SERVICE OMAHA NE
1100 AM CST SUN DEC 04 2016

NOTES: SATELLITE DATA IS BEING USED TO AUGMENT CLOUD COVER ABOVE
       12000 FEET.
       "FAIR" INDICATES FEW OR NO CLOUDS BELOW 12,000 FEET WITH NO
       SIGNIFICANT WEATHER AND/OR OBSTRUCTIONS TO VISIBILITY.

  * THESE STATIONS DO NOT REPORT WEATHER SUCH AS RAIN...SNOW OR FOG.

NEZ001>004-019>022-054>056-041800-
NEBRASKA PANHANDLE

CITY           SKY/WX    TMP DP  RH WIND       PRES   REMARKS
SCOTTSBLUFF    SUNNY     39  18  42 W7        29.96F WCI  34
ALLIANCE       SUNNY     38  18  44 W17G23    29.94F WCI  28
CHADRON        SUNNY     38  14  37 SW9       29.94S WCI  31
KIMBALL        CLOUDY    38  15  40 W13       29.97F WCI  30
SIDNEY         SUNNY     41  13  31 W18       29.98F
$$

NEZ057>060-069>072-079>082-041800-
SOUTHWEST NEBRASKA

CITY           SKY/WX    TMP DP  RH WIND       PRES   REMARKS
NORTH PLATTE   SUNNY     39  22  50 W13       30.00F WCI  31
IMPERIAL       SUNNY     44  16  32 NW22G33   30.01F
LEXINGTON      SUNNY     38  25  59 NW12      30.00F WCI  31
MCCOOK         SUNNY     37  22  54 W9        30.04F WCI  30
OGALLALA       SUNNY     42  21  42 W13       30.00F
$$

NEZ005>010-023>029-035>040-094-041800-
NORTH CENTRAL NEBRASKA

CITY           SKY/WX    TMP DP  RH WIND       PRES   REMARKS
VALENTINE      SUNNY     41  20  43 NW12      29.92S
AINSWORTH      SUNNY     41  23  48 W14       29.92S
BROKEN BOW     SUNNY     43  24  47 NW9       29.96F
O`NEILL        SUNNY     42  29  59 W10       29.93S
ORD            SUNNY     41  27  57 NW7       29.95F
THEDFORD       SUNNY     43  21  42 W10       29.96S
$$

NEZ041-046>049-061>064-073>077-083>087-041800-
SOUTH CENTRAL NEBRASKA

CITY           SKY/WX    TMP DP  RH WIND       PRES   REMARKS
GRAND ISLAND   SUNNY     39  31  72 W10       29.99S WCI  32
AURORA         SUNNY     37  32  80 W10       29.99S WCI  30
HASTINGS       SUNNY     36  28  73 W8        30.01R WCI  30
HEBRON         CLOUDY    32  31  96 W9        30.03S FOG     WCI  24
HOLDREGE       SUNNY     38  30  72 W7        30.01F WCI  32
KEARNEY *      SUNNY     39  27  60 W9        30.00S WCI  33
YORK           SUNNY     34  30  86 W6        29.99S WCI  29
$$

NEZ011>018-030>034-042>045-041800-
NORTHEAST NEBRASKA

CITY           SKY/WX    TMP DP  RH WIND       PRES   REMARKS
NORFOLK        SUNNY     40  29  64 W7        29.93F
ALBION         SUNNY     41  31  67 W3        29.95F
BLAIR          CLOUDY    33  32  94 SW10      29.96R FOG     WCI  25
FREMONT        SUNNY     34  32  93 SW6       29.97S WCI  29
TEKAMAH        SUNNY     33  30  88 SW8       29.96S WCI  26
WAYNE          SUNNY     43  33  68 W7        29.92F
$$

NEZ050>053-065>068-078-088>093-041800-
SOUTHEAST NEBRASKA

CITY           SKY/WX    TMP DP  RH WIND       PRES   REMARKS
LINCOLN        CLOUDY    33  31  92 SW9       30.01S WCI  25
OMAHA EPPLEY   PTSUNNY   36  31  82 SW7       29.98F WCI  30
BEATRICE       CLOUDY    34  32  94 SW9       30.02S WCI  26
FALLS CITY     CLOUDY    35  34  96 W10       30.02F WCI  27
NEBRASKA CITY  CLOUDY    35  33  92 W10       30.01R FOG     WCI  28
PLATTSMOUTH    CLOUDY    34  30  85 SW9       29.99S WCI  26
$$

NEZ044-045-051>053-067-041800-
OMAHA AREA

CITY           SKY/WX    TMP DP  RH WIND       PRES   REMARKS
OMAHA EPPLEY   PTSUNNY   36  31  82 SW7       29.98F WCI  30
BLAIR          CLOUDY    33  32  94 SW10      29.96R FOG     WCI  25
FREMONT        SUNNY     34  32  93 SW6       29.97S WCI  29
MILLARD        CLOUDY    34  32  90 W7        29.98F WCI  28
OFFUTT AFB     CLOUDY    36  36 100 SW9       29.98F WCI  29
PLATTSMOUTH    CLOUDY    34  30  85 SW9       29.99S WCI  26
WAHOO          FAIR      34  31  89 SW9       29.98R WCI  26
$$




USA.gov is the U.S. government's official web portal to all federal, state and local government web resources and services.